Regional Weather Roundup
Issued by NWS Charleston, WV

Home | Current Version | Previous Version | Text Only | Print | Product List | Glossary Off
Versions: 1 2 3 4 5 6 7 8 9 10 11 12 13 14 15 16 17 18 19 20 21 22 23 24 25 26 27 28 29 30 31 32 33 34 35 36 37 38 39 40 41 42 43 44 45 46 47 48 49 50

199
ASUS41 KRLX 071710
RWRRLX
West Virginia Regional Weather Roundup
National Weather Service Charleston WV
1200 PM EST SUN FEB 07 2016

Note: "fair" indicates few or no clouds below 12,000 feet with no
significant weather and/or obstructions to visibility.

WVZ003-071800-
Northern Panhandle of West Virginia

CITY           SKY/WX    TMP DP  RH WIND       PRES   REMARKS
WHEELING         N/A     44  22  41 SW12      30.06F
$$

WVZ009-071800-
Northwest West Virginia

CITY           SKY/WX    TMP DP  RH WIND       PRES   REMARKS
PARKERSBURG      N/A     47  25  42 SW9       30.11F
$$

WVZ006-071800-
Western West Virginia

CITY           SKY/WX    TMP DP  RH WIND       PRES   REMARKS
HUNTINGTON       N/A     47  25  42 S9        30.11F
$$

WVZ015-071800-
West Central West Virginia

CITY           SKY/WX    TMP DP  RH WIND       PRES   REMARKS
CHARLESTON       N/A     47  26  44 SW5       30.11F
$$

WVZ022-031-071800-
North Central West Virginia

CITY           SKY/WX    TMP DP  RH WIND       PRES   REMARKS
CLARKSBURG       N/A     45  23  42 VRB5      30.10F
MORGANTOWN       N/A     45  19  35 VRB6      30.10F
$$

WVZ025-035-042-045-071800-
Southern West Virginia

CITY           SKY/WX    TMP DP  RH WIND       PRES   REMARKS
BECKLEY          N/A     42  21  43 NW13      30.08F
LOGAN            N/A     45  25  45 VRB3      30.10F
BLUEFIELD        N/A     40  20  44 NW9       30.06F
LEWISBURG        N/A     41  25  52 CALM      30.06F
$$

WVZ047-071800-
Northern Mountains of West Virginia

CITY           SKY/WX    TMP DP  RH WIND       PRES   REMARKS
ELKINS           N/A     43  21  41 CALM      30.09F
$$

WVZ052-071800-
Eastern Panhandle of West Virginia

CITY           SKY/WX    TMP DP  RH WIND       PRES   REMARKS
MARTINSBURG      N/A     38  22  52 CALM      30.11F
PETERSBURG       N/A     43  24  47 CALM      30.09F
$$




USA.gov is the U.S. government's official web portal to all federal, state and local government web resources and services.